TURKMENALEM52E/MONACOSAT

Last updated on Thu Nov 21 2024 00:02:43 GMT+0000 (Coordinated Universal Time)

1 40617U 15023A 24325.21160664 .00000105 00000+0 00000+0 0 9995 2 40617 0.0301 73.3679 0003433 174.5218 300.0271 1.00271349 35097
UTC large
Height (km)
Speed (km/s)
/
Latitude / Longitude
Inclination (degrees)
Orbital Period (minutes)
Azimuth
Elevation
Range (km)
Doppler Factor

Next 0 passes for location: London (51.5072 / 0.1276)

Sorry there are no passes over London.